When you browse on this site, cookies collect data to enhance your experience and personalize the content and advertising you see.
Visit our Privacy Policy to learn more. By continuing to use the site, you agree to this use of cookies and data.
  • Em Portugal
  • Lista de países
  • Para 7 dias
  • Temperatura da água
  • Mapas de satélite
  • Mapa do tempo
  • Widgets de tempo
  • user-avatar
    Iniciar Sessão

    Previsão horária em Dziecmorowice

    Hoje, 21 Março, Quinta-feira

    Tempo Temperatura Precipitação Vento Pressão Humidade
    00:00 +2°C° 0 mm 2 m/s 735 mmHg 68%
    01:00 +3°C° 0 mm 2 m/s 735 mmHg 67%
    02:00 +2°C° 0 mm 2 m/s 735 mmHg 67%
    03:00 +2°C° 0 mm 2 m/s 735 mmHg 68%
    04:00 +2°C° 0 mm 2 m/s 735 mmHg 69%
    05:00 +3°C° 0 mm 2 m/s 735 mmHg 70%
    06:00 +3°C° 0 mm 2 m/s 736 mmHg 70%
    07:00 +3°C° 0 mm 2 m/s 736 mmHg 70%
    08:00 +5°C° 0 mm 2 m/s 736 mmHg 68%
    09:00 +7°C° 0 mm 2 m/s 736 mmHg 66%
    10:00 +9°C° 0 mm 2 m/s 736 mmHg 65%
    11:00 +10°C° 0 mm 2 m/s 736 mmHg 63%
    12:00 +12°C° 0 mm 2 m/s 736 mmHg 62%
    13:00 +13°C° 0 mm 2 m/s 736 mmHg 60%
    14:00 +13°C° 0 mm 2 m/s 736 mmHg 61%
    15:00 +13°C° 0 mm 2 m/s 735 mmHg 61%
    16:00 +13°C° 0 mm 2 m/s 735 mmHg 62%
    17:00 +12°C° 0 mm 2 m/s 735 mmHg 68%
    18:00 +10°C° 0 mm 1 m/s 735 mmHg 74%
    19:00 +9°C° 0 mm 1 m/s 735 mmHg 80%
    20:00 +9°C° 0 mm 1 m/s 735 mmHg 82%
    21:00 +8°C° 0 mm 1 m/s 735 mmHg 84%
    22:00 +8°C° 0 mm 1 m/s 735 mmHg 87%
    23:00 +7°C° 0 mm 1 m/s 735 mmHg 87%

    Amanhã, 22 Março, Sexta-feira

    Tempo Temperatura Precipitação Vento Pressão Humidade
    00:00 +7°C° 0 mm 1 m/s 735 mmHg 88%
    01:00 +7°C° 0 mm 1 m/s 735 mmHg 88%
    02:00 +7°C° 0 mm 1 m/s 735 mmHg 88%
    03:00 +7°C° 0 mm 1 m/s 735 mmHg 89%
    04:00 +7°C° 0 mm 1 m/s 734 mmHg 89%
    05:00 +7°C° 0 mm 1 m/s 735 mmHg 88%
    06:00 +7°C° 0 mm 1 m/s 735 mmHg 88%
    07:00 +7°C° 0 mm 1 m/s 735 mmHg 88%
    08:00 +9°C° 0 mm 1 m/s 735 mmHg 82%
    09:00 +11°C° 0 mm 1 m/s 736 mmHg 76%
    10:00 +13°C° 0 mm 1 m/s 736 mmHg 71%
    11:00 +13°C° 0 mm 1 m/s 736 mmHg 69%
    12:00 +14°C° 0 mm 2 m/s 735 mmHg 68%
    13:00 +15°C° 0 mm 2 m/s 735 mmHg 66%
    14:00 +15°C° 0 mm 2 m/s 735 mmHg 67%
    15:00 +14°C° 0 mm 2 m/s 734 mmHg 68%
    16:00 +14°C° 0 mm 2 m/s 734 mmHg 69%
    17:00 +13°C° 0 mm 2 m/s 734 mmHg 75%
    18:00 +11°C° 0 mm 1 m/s 734 mmHg 81%
    19:00 +10°C° 0 mm 1 m/s 733 mmHg 87%
    20:00 +10°C° 0 mm 1 m/s 733 mmHg 89%
    21:00 +9°C° 0 mm 1 m/s 733 mmHg 90%
    22:00 +9°C° 0 mm 1 m/s 733 mmHg 91%
    23:00 +8°C° 0 mm 1 m/s 733 mmHg 92%

    Depois de amanhã, 23 Março, Sábado

    Tempo Temperatura Precipitação Vento Pressão Humidade
    00:00 +8°C° 0 mm 1 m/s 733 mmHg 92%
    01:00 +7°C° 0 mm 2 m/s 732 mmHg 92%
    02:00 +7°C° 0 mm 2 m/s 732 mmHg 92%
    03:00 +7°C° 0 mm 2 m/s 732 mmHg 91%
    04:00 +7°C° 0 mm 2 m/s 731 mmHg 90%
    05:00 +7°C° 0 mm 2 m/s 731 mmHg 89%
    06:00 +7°C° 0 mm 2 m/s 731 mmHg 88%
    07:00 +8°C° 0 mm 2 m/s 731 mmHg 87%
    08:00 +10°C° 0 mm 2 m/s 731 mmHg 78%
    09:00 +13°C° 0 mm 2 m/s 731 mmHg 69%
    10:00 +15°C° 0 mm 2 m/s 731 mmHg 60%
    11:00 +16°C° 0 mm 2 m/s 731 mmHg 56%
    12:00 +17°C° 0 mm 2 m/s 731 mmHg 52%
    13:00 +18°C° 0 mm 2 m/s 731 mmHg 48%
    14:00 +18°C° 0 mm 2 m/s 730 mmHg 48%
    15:00 +18°C° 0 mm 2 m/s 730 mmHg 48%
    16:00 +18°C° 0 mm 2 m/s 730 mmHg 49%
    17:00 +16°C° 0 mm 2 m/s 730 mmHg 55%
    18:00 +15°C° 0 mm 2 m/s 730 mmHg 62%
    19:00 +13°C° 0 mm 2 m/s 730 mmHg 69%
    20:00 +12°C° 0 mm 2 m/s 730 mmHg 74%
    21:00 +12°C° 0 mm 2 m/s 730 mmHg 78%
    22:00 +10°C° 0 mm 3 m/s 731 mmHg 83%
    23:00 +9°C° 0.1 mm 3 m/s 731 mmHg 85%

    24 Março, Domingo

    Tempo Temperatura Precipitação Vento Pressão Humidade
    00:00 +8°C° 0.1 mm 4 m/s 731 mmHg 87%
    01:00 +7°C° 0.1 mm 4 m/s 731 mmHg 89%
    02:00 +6°C° 0 mm 4 m/s 731 mmHg 86%
    03:00 +5°C° 0 mm 3 m/s 731 mmHg 83%
    04:00 +4°C° 0 mm 3 m/s 731 mmHg 80%
    05:00 +4°C° 0 mm 3 m/s 731 mmHg 77%
    06:00 +3°C° 0 mm 3 m/s 731 mmHg 74%
    07:00 +4°C° 0 mm 2 m/s 731 mmHg 70%
    08:00 +5°C° 0 mm 2 m/s 731 mmHg 65%
    09:00 +5°C° 0 mm 2 m/s 732 mmHg 61%
    10:00 +6°C° 0 mm 2 m/s 732 mmHg 56%
    11:00 +7°C° 0 mm 2 m/s 731 mmHg 53%
    12:00 +7°C° 0 mm 2 m/s 731 mmHg 51%
    13:00 +8°C° 0 mm 2 m/s 731 mmHg 48%
    14:00 +8°C° 0 mm 3 m/s 731 mmHg 48%
    15:00 +8°C° 0 mm 3 m/s 730 mmHg 47%
    16:00 +8°C° 0 mm 3 m/s 730 mmHg 46%
    17:00 +7°C° 0 mm 3 m/s 730 mmHg 50%
    18:00 +6°C° 0 mm 2 m/s 730 mmHg 53%
    19:00 +5°C° 0 mm 2 m/s 730 mmHg 56%
    20:00 +4°C° 0 mm 2 m/s 730 mmHg 59%
    21:00 +3°C° 0 mm 2 m/s 730 mmHg 62%
    22:00 +4°C° 0 mm 1 m/s 730 mmHg 66%
    23:00 +3°C° 0 mm 1 m/s 730 mmHg 68%

    25 Março, Segunda-feira

    Tempo Temperatura Precipitação Vento Pressão Humidade
    00:00 +3°C° 0 mm 1 m/s 730 mmHg 69%
    01:00 +2°C° 0 mm 1 m/s 730 mmHg 71%
    02:00 +2°C° 0 mm 1 m/s 730 mmHg 71%
    03:00 +1°C° 0 mm 2 m/s 730 mmHg 72%
    04:00 +1°C° 0 mm 2 m/s 730 mmHg 72%
    05:00 +1°C° 0 mm 2 m/s 730 mmHg 71%
    06:00 +1°C° 0 mm 2 m/s 730 mmHg 70%
    07:00 +1°C° 0 mm 3 m/s 730 mmHg 68%
    08:00 +1°C° 0 mm 4 m/s 730 mmHg 62%
    09:00 +3°C° 0 mm 5 m/s 730 mmHg 55%
    10:00 +4°C° 0 mm 6 m/s 730 mmHg 49%
    11:00 +4°C° 0 mm 7 m/s 729 mmHg 52%
    12:00 +4°C° 0 mm 7 m/s 729 mmHg 55%
    13:00 +4°C° 0 mm 8 m/s 728 mmHg 58%
    14:00 +4°C° 0.1 mm 7 m/s 728 mmHg 59%
    15:00 +4°C° 0.1 mm 7 m/s 728 mmHg 60%
    16:00 +4°C° 0.1 mm 7 m/s 727 mmHg 60%
    17:00 +3°C° 0.1 mm 7 m/s 727 mmHg 65%
    18:00 +3°C° 0.1 mm 6 m/s 727 mmHg 70%
    19:00 +2°C° 0.1 mm 5 m/s 727 mmHg 75%
    20:00 +2°C° 0.1 mm 6 m/s 727 mmHg 75%
    21:00 +1°C° 0.1 mm 6 m/s 727 mmHg 75%
    22:00 -1°C° 0.1 mm 6 m/s 726 mmHg 76%
    23:00 -1°C° 0.2 mm 6 m/s 726 mmHg 76%

    26 Março, Terça-feira

    Tempo Temperatura Precipitação Vento Pressão Humidade
    00:00 +1°C° 0.2 mm 6 m/s 726 mmHg 77%
    01:00 +1°C° 0.2 mm 6 m/s 726 mmHg 78%
    02:00 -1°C° 0 mm 6 m/s 726 mmHg 79%
    03:00 -2°C° 0 mm 6 m/s 725 mmHg 79%
    04:00 -2°C° 0 mm 5 m/s 725 mmHg 79%
    05:00 -3°C° 0 mm 6 m/s 725 mmHg 78%
    06:00 -3°C° 0 mm 7 m/s 725 mmHg 76%
    07:00 -3°C° 0 mm 7 m/s 725 mmHg 75%
    08:00 -2°C° 0.1 mm 8 m/s 726 mmHg 70%
    09:00 -1°C° 0.1 mm 8 m/s 726 mmHg 65%
    10:00 0°C° 0.1 mm 9 m/s 727 mmHg 60%
    11:00 0°C° 0.1 mm 8 m/s 727 mmHg 54%
    12:00 +1°C° 0.1 mm 8 m/s 727 mmHg 48%
    13:00 +2°C° 0.1 mm 8 m/s 727 mmHg 42%
    14:00 +2°C° 0 mm 8 m/s 727 mmHg 43%
    15:00 +2°C° 0 mm 8 m/s 728 mmHg 43%
    16:00 +2°C° 0 mm 8 m/s 728 mmHg 43%
    17:00 +2°C° 0 mm 6 m/s 728 mmHg 50%
    18:00 +1°C° 0 mm 5 m/s 729 mmHg 57%
    19:00 0°C° 0 mm 4 m/s 729 mmHg 64%
    20:00 -1°C° 0 mm 4 m/s 730 mmHg 66%
    21:00 -1°C° 0 mm 3 m/s 730 mmHg 68%
    22:00 -1°C° 0 mm 3 m/s 730 mmHg 71%
    23:00 -2°C° 0 mm 3 m/s 731 mmHg 73%
    Mostrar mais